Date String (YYYY-MM-DD hh:mm:ss) UTC,Instrument flags,absolute air pressure of the measurement (hPa),sample flow rate (lpm),inlet stack bypass flow (lpm),air temperature of the measurement (°C),ambient temperature measured by the external sensor (°C),aerosol sample conditioner tube jacket temperature (°C),OPC LED temperature (°C),internal box temperature (°C),relative humidity of the measurement (%),span deviation,mass concentration of particles derived from Lorenz-Mie calculation of OPC scattering (μg/m³),mass concentration of particles derived from Lorenz-Mie calculation of OPC scattering (μg/m³),mass concentration of particles derived from Lorenz-Mie calculation of OPC scattering (μg/m³)
DateTimeUTC,F1_M11,P_M11,Q1_M11,Q2_M11,T1_M11,T2_M11,T3_M11,T4_M11,T5_M11,U1_M11,ZSPAN_M11,X2_M11,X0_M11,X1_M11
2024-06-10 14:00:00,SystemResetWarning,0830.0,5.00,000.00,031.2,028.8,000.0,040.0,032.0,033.1,-000.5,0011.77,0017.43,0011.03
2024-06-10 14:01:00,SystemResetWarning,0829.9,5.00,000.00,030.7,026.9,000.0,039.9,031.1,034.5,-000.6,0011.83,0017.79,0011.09
2024-06-10 14:02:00,SystemResetWarning,0829.8,5.00,000.00,030.3,026.7,000.0,039.8,030.8,035.4,-000.5,0011.85,0017.67,0011.14
2024-06-10 14:03:00,SystemResetWarning,0829.8,5.01,000.00,030.2,027.0,000.0,039.6,030.9,035.4,-000.3,0011.86,0017.51,0011.17
2024-06-10 14:04:00,SystemResetWarning,0829.8,5.01,000.00,030.1,027.5,000.0,039.4,031.2,035.8,-000.0,0011.88,0017.65,0011.20
2024-06-10 14:05:00,SystemResetWarning,0829.8,4.98,000.00,030.1,027.9,000.0,039.3,031.4,036.1,-000.3,0011.94,0017.56,0011.25
2024-06-10 14:06:00,SystemResetWarning,0829.9,5.01,000.00,030.2,028.3,000.0,039.2,031.6,036.0,-000.1,0011.97,0016.92,0011.26
2024-06-10 14:07:00,SystemResetWarning,0829.9,5.01,000.00,030.2,028.5,000.0,039.1,031.7,036.6,0000.1,0012.02,0016.61,0011.27
2024-06-10 14:08:00,SystemResetWarning,0830.0,4.99,000.00,030.2,028.8,000.0,039.1,031.8,035.9,0000.2,0012.05,0016.49,0011.27
2024-06-10 14:09:00,SystemResetWarning,0830.0,5.00,000.00,030.2,029.0,000.0,039.1,031.9,034.7,0000.2,0012.05,0016.40,0011.26
2024-06-10 14:10:00,SystemResetWarning,0830.0,4.99,000.00,030.2,029.1,000.0,039.0,031.9,034.3,0000.6,0012.02,0015.91,0011.23
2024-06-10 14:11:00,SystemResetWarning,0830.0,5.00,000.00,030.3,029.3,000.0,039.0,032.0,034.4,0000.2,0011.99,0015.97,0011.21
2024-06-10 14:12:00,SystemResetWarning,0830.0,5.00,000.00,030.3,029.4,000.0,039.0,032.0,035.7,0000.3,0011.96,0016.56,0011.17
2024-06-10 14:13:00,SystemResetWarning,0830.0,5.01,000.00,030.3,029.5,000.0,039.0,032.0,036.1,0000.1,0011.92,0016.77,0011.15
2024-06-10 14:14:00,SystemResetWarning,0830.0,5.00,000.00,030.4,029.6,000.0,039.0,032.1,035.5,0000.0,0011.87,0016.80,0011.12
2024-06-10 14:15:00,SystemResetWarning,0830.0,5.00,000.00,030.4,029.6,000.0,038.9,032.1,035.6,-000.2,0011.85,0016.62,0011.10
2024-06-10 14:16:00,SystemResetWarning,0829.9,4.99,000.00,030.4,029.7,000.0,038.9,032.1,036.1,-000.3,0011.81,0016.59,0011.07
2024-06-10 14:17:00,SystemResetWarning,0829.9,4.99,000.00,030.5,029.8,000.0,038.9,032.2,035.7,-000.2,0011.74,0016.82,0011.07
2024-06-10 14:18:00,SystemResetWarning,0830.0,4.99,000.00,030.5,029.8,000.0,039.0,032.2,035.5,-000.4,0011.72,0016.88,0011.08
2024-06-10 14:19:00,SystemResetWarning,0829.9,5.00,000.00,030.5,029.9,000.0,039.0,032.3,035.5,-000.6,0011.73,0017.43,0011.09
2024-06-10 14:20:00,SystemResetWarning,0829.9,5.01,000.00,030.6,029.9,000.0,039.0,032.3,035.0,-000.6,0011.74,0018.02,0011.11
2024-06-10 14:21:00,SystemResetWarning,0829.9,5.00,000.00,030.6,029.9,000.0,039.0,032.3,034.0,-000.6,0011.80,0018.31,0011.18
2024-06-10 14:22:00,SystemResetWarning,0829.8,5.00,000.00,030.6,030.0,000.0,039.0,032.3,034.2,-000.7,0011.83,0018.24,0011.21
2024-06-10 14:23:00,SystemResetWarning,0829.8,5.01,000.00,030.6,030.0,000.0,039.0,032.3,035.1,-000.8,0011.86,0017.37,0011.23
2024-06-10 14:24:00,SystemResetWarning,0829.8,5.00,000.00,030.7,030.0,000.0,039.0,032.4,034.4,-000.9,0011.91,0017.21,0011.24
2024-06-10 14:25:00,SystemResetWarning,0829.8,5.00,000.00,030.7,030.1,000.0,039.1,032.4,034.7,-000.8,0011.90,0017.40,0011.21
2024-06-10 14:26:00,SystemResetWarning,0829.8,5.00,000.00,030.7,030.1,000.0,039.1,032.4,034.9,-000.8,0011.89,0017.71,0011.21
2024-06-10 14:27:00,SystemResetWarning,0829.8,5.00,000.00,030.7,030.1,000.0,039.1,032.5,034.6,-000.5,0011.90,0018.12,0011.22
2024-06-10 14:28:00,SystemResetWarning,0829.8,5.00,000.00,030.8,030.1,000.0,039.1,032.5,034.8,-000.6,0011.93,0018.19,0011.21
2024-06-10 14:29:00,SystemResetWarning,0829.8,5.00,000.00,030.8,030.1,000.0,039.1,032.5,033.6,-000.6,0011.92,0018.31,0011.19
2024-06-10 14:30:00,SystemResetWarning,0829.8,5.01,000.00,030.8,030.2,000.0,039.1,032.5,034.6,-000.6,0011.84,0018.19,0011.14
2024-06-10 14:31:00,SystemResetWarning,0829.8,5.01,000.00,030.8,030.2,000.0,039.2,032.6,034.3,-000.2,0011.80,0017.58,0011.11
2024-06-10 14:32:00,SystemResetWarning,0829.7,5.00,000.00,030.9,030.2,000.0,039.2,032.6,034.0,-000.2,0011.74,0017.12,0011.08
2024-06-10 14:33:00,SystemResetWarning,0829.7,4.99,000.00,030.9,030.3,000.0,039.2,032.6,033.9,-000.1,0011.71,0017.27,0011.05
2024-06-10 14:34:00,SystemResetWarning,0829.7,4.99,000.00,030.9,030.3,000.0,039.2,032.6,034.8,0000.0,0011.67,0017.29,0011.01
2024-06-10 14:35:00,SystemResetWarning,0829.7,5.00,000.00,030.9,030.3,000.0,039.2,032.6,034.4,0000.4,0011.66,0017.35,0010.97
2024-06-10 14:36:00,SystemResetWarning,0829.7,5.01,000.00,031.0,030.3,000.0,039.3,032.7,033.3,0000.3,0011.65,0017.41,0010.96
2024-06-10 14:37:00,SystemResetWarning,0829.7,5.00,000.00,031.0,030.3,000.0,039.3,032.6,033.3,0000.4,0011.61,0016.82,0010.92
2024-06-10 14:38:00,SystemResetWarning,0829.7,5.01,000.00,031.0,030.4,000.0,039.3,032.7,033.5,0000.2,0011.60,0016.42,0010.86
2024-06-10 14:39:00,SystemResetWarning,0829.7,5.00,000.00,031.0,030.4,000.0,039.3,032.7,033.5,0000.4,0011.60,0016.07,0010.83
2024-06-10 14:40:00,SystemResetWarning,0829.7,4.99,000.00,031.0,030.3,000.0,039.3,032.6,033.3,0000.1,0011.61,0015.62,0010.83
2024-06-10 14:41:00,SystemResetWarning,0829.7,4.99,000.00,030.9,028.8,000.0,039.4,031.9,033.8,0000.3,0011.70,0015.30,0010.88
2024-06-10 14:42:00,SystemResetWarning,0829.7,5.01,000.00,030.4,027.1,000.0,039.4,031.0,035.1,-000.0,0011.72,0015.52,0010.90
2024-06-10 14:43:00,SystemResetWarning,0829.6,5.02,000.00,030.2,026.8,000.0,039.3,030.8,036.0,0000.4,0011.76,0015.29,0010.93
2024-06-10 14:44:00,SystemResetWarning,0829.7,5.00,000.00,030.0,027.2,000.0,039.1,030.9,036.3,0000.6,0011.77,0015.19,0010.95
2024-06-10 14:45:00,SystemResetWarning,0829.6,5.00,000.00,030.0,027.6,000.0,039.0,031.2,036.4,0000.5,0011.86,0015.64,0011.03
2024-06-10 14:46:00,SystemResetWarning,0829.6,5.01,000.00,030.0,028.0,000.0,038.9,031.4,036.5,0000.3,0011.92,0015.92,0011.13
2024-06-10 14:47:00,SystemResetWarning,0829.6,4.99,000.00,030.0,028.3,000.0,038.9,031.5,036.7,-000.1,0012.02,0016.36,0011.22
2024-06-10 14:48:00,SystemResetWarning,0829.6,4.99,000.00,030.1,028.6,000.0,038.8,031.6,036.2,0000.1,0012.12,0018.16,0011.31
2024-06-10 14:49:00,SystemResetWarning,0829.6,5.01,000.00,030.1,028.8,000.0,038.8,031.7,036.3,-000.0,0012.21,0018.47,0011.41
2024-06-10 14:50:00,SystemResetWarning,0829.7,5.00,000.00,030.1,029.0,000.0,038.7,031.8,036.1,-000.0,0012.28,0018.90,0011.49
2024-06-10 14:51:00,SystemResetWarning,0829.6,5.00,000.00,030.2,029.2,000.0,038.7,031.9,036.3,0000.0,0012.34,0019.14,0011.55
2024-06-10 14:52:00,SystemResetWarning,0829.6,5.00,000.00,030.2,029.3,000.0,038.7,031.9,036.1,0000.0,0012.36,0019.61,0011.59
2024-06-10 14:53:00,SystemResetWarning,0829.7,5.00,000.00,030.2,029.4,000.0,038.7,032.0,036.4,0000.1,0012.37,0019.44,0011.62
2024-06-10 14:54:00,SystemResetWarning,0829.7,4.99,000.00,030.3,029.5,000.0,038.7,032.0,036.3,-000.3,0012.41,0020.35,0011.64
2024-06-10 14:55:00,SystemResetWarning,0829.7,4.99,000.00,030.3,029.6,000.0,038.7,032.1,036.5,-000.9,0012.44,0020.24,0011.63
2024-06-10 14:56:00,SystemResetWarning,0829.7,5.01,000.00,030.4,029.7,000.0,038.7,032.2,036.2,-001.0,0012.44,0019.98,0011.61
2024-06-10 14:57:00,SystemResetWarning,0829.7,5.01,000.00,030.4,029.8,000.0,038.7,032.2,035.5,-001.2,0012.40,0019.46,0011.56
2024-06-10 14:58:00,SystemResetWarning,0829.7,5.00,000.00,030.4,029.8,000.0,038.8,032.2,035.5,-000.9,0012.33,0019.00,0011.51
2024-06-10 14:59:00,SystemResetWarning,0829.7,4.99,000.00,030.5,029.9,000.0,038.8,032.3,035.4,-000.8,0012.30,0018.00,0011.49
